^^

..:: Storico WU ::..




Lo storico viene creato da WUnderground con i dati che la stazione Meteomincio invia al loro server. L' aggiornamento viene fatto ogni 5 minuti circa, tuttavia possono esserci intervalli pił ampi a causa di errori, interruzioni di servizio o problemi nell' invio tramite FTP.


Storico stazione MeteoMincio
Giorno Sommario per Aprile 19, 2022 Unità:  Inglese    Metrico   Entrambi
Giorno Settimana Mese Anno
  Max: Min: Media:
Temperatura: 68 °F 41 °F 55.4 °F
Dew Point: 46.4 °F 32 °F 38.8 °F
Umidità: 76% 36% 55%
Velocità vento: 14.3mph 0.6mph 4.8mph
Raffica: 19.9mph - -
Direzione- - ESE
Pressione: 29.9 in 29.7 in -
Precipitazioni: 0 in    
 
 
Tabulato Dati per Aprile 19, 2022
Ora Temperatura Dew Point Pressione Direzione Velocità vento Raffica Umidità Intensità pioggia (oraria) Info solare Situazione
00:04 50 °F 35.6 °F 29.9 in ENE 3.1 mph 5 mph 56% 0 in 0.00 W/m2 unknown
00:09 50 °F 33.8 °F 29.9 in NE 3.1 mph 5 mph 56% 0 in 0.00 W/m2 unknown
00:14 50 °F 35.6 °F 29.9 in NE 3.1 mph 5 mph 58% 0 in 0.00 W/m2 unknown
00:19 48.2 °F 35.6 °F 29.9 in NE 2.5 mph 3.7 mph 59% 0 in 0.00 W/m2 unknown
00:24 48.2 °F 35.6 °F 29.9 in NE 2.5 mph 3.7 mph 59% 0 in 0.00 W/m2 unknown
00:29 48.2 °F 35.6 °F 29.9 in NNE 4.3 mph 6.2 mph 61% 0 in 0.00 W/m2 unknown
00:34 48.2 °F 35.6 °F 29.9 in NE 3.7 mph 6.2 mph 61% 0 in 0.00 W/m2 unknown
00:39 48.2 °F 35.6 °F 29.9 in NNE 3.7 mph 5 mph 62% 0 in 0.00 W/m2 unknown
00:44 48.2 °F 35.6 °F 29.9 in NNE 4.3 mph 6.2 mph 63% 0 in 0.00 W/m2 unknown
00:49 46.4 °F 35.6 °F 29.9 in NE 5 mph 6.2 mph 63% 0 in 0.00 W/m2 unknown
00:54 46.4 °F 35.6 °F 29.9 in NNE 5.6 mph 6.8 mph 63% 0 in 0.00 W/m2 unknown
00:59 46.4 °F 35.6 °F 29.9 in NE 5.6 mph 6.8 mph 63% 0 in 0.00 W/m2 unknown
01:04 46.4 °F 35.6 °F 29.9 in NE 5.6 mph 8.1 mph 62% 0 in 0.00 W/m2 unknown
01:09 48.2 °F 35.6 °F 29.9 in NE 5 mph 8.1 mph 62% 0 in 0.00 W/m2 unknown
01:14 48.2 °F 33.8 °F 29.9 in NE 5 mph 6.8 mph 61% 0 in 0.00 W/m2 unknown
01:19 46.4 °F 33.8 °F 29.9 in NE 5 mph 6.8 mph 61% 0 in 0.00 W/m2 unknown
01:24 46.4 °F 33.8 °F 29.9 in NE 5 mph 6.8 mph 61% 0 in 0.00 W/m2 unknown
01:29 48.2 °F 35.6 °F 29.9 in NE 5 mph 6.8 mph 62% 0 in 0.00 W/m2 unknown
01:34 46.4 °F 35.6 °F 29.9 in NE 5 mph 6.2 mph 62% 0 in 0.00 W/m2 unknown
01:39 46.4 °F 35.6 °F 29.9 in NE 5 mph 6.2 mph 62% 0 in 0.00 W/m2 unknown
01:44 46.4 °F 35.6 °F 29.9 in NE 5 mph 6.8 mph 62% 0 in 0.00 W/m2 unknown
01:49 46.4 °F 33.8 °F 29.9 in NE 5 mph 6.8 mph 62% 0 in 0.00 W/m2 unknown
01:54 46.4 °F 33.8 °F 29.9 in NE 5 mph 6.2 mph 62% 0 in 0.00 W/m2 unknown
01:59 46.4 °F 33.8 °F 29.9 in NE 5 mph 6.8 mph 62% 0 in 0.00 W/m2 unknown
02:04 46.4 °F 33.8 °F 29.9 in NE 5 mph 6.8 mph 62% 0 in 0.00 W/m2 unknown
02:09 46.4 °F 33.8 °F 29.9 in NE 5 mph 6.8 mph 62% 0 in 0.00 W/m2 unknown
02:14 46.4 °F 33.8 °F 29.9 in NE 5 mph 6.8 mph 62% 0 in 0.00 W/m2 unknown
02:19 46.4 °F 33.8 °F 29.9 in NE 5 mph 6.8 mph 62% 0 in 0.00 W/m2 unknown
02:24 46.4 °F 33.8 °F 29.9 in NE 5 mph 6.8 mph 62% 0 in 0.00 W/m2 unknown
02:29 46.4 °F 33.8 °F 29.9 in NE 5.6 mph 6.8 mph 62% 0 in 0.00 W/m2 unknown
02:34 46.4 °F 33.8 °F 29.9 in NE 5 mph 8.1 mph 62% 0 in 0.00 W/m2 unknown
02:39 46.4 °F 33.8 °F 29.9 in NE 5 mph 8.1 mph 62% 0 in 0.00 W/m2 unknown
02:44 46.4 °F 33.8 °F 29.9 in NE 5.6 mph 6.8 mph 62% 0 in 0.00 W/m2 unknown
02:49 46.4 °F 33.8 °F 29.9 in NE 6.2 mph 6.8 mph 62% 0 in 0.00 W/m2 unknown
02:54 46.4 °F 33.8 °F 29.9 in NE 5 mph 6.8 mph 62% 0 in 0.00 W/m2 unknown
02:59 46.4 °F 33.8 °F 29.9 in NE 5.6 mph 8.1 mph 62% 0 in 0.00 W/m2 unknown
03:04 46.4 °F 33.8 °F 29.9 in NE 5 mph 8.1 mph 61% 0 in 0.00 W/m2 unknown
03:09 46.4 °F 33.8 °F 29.9 in NE 4.3 mph 6.8 mph 61% 0 in 0.00 W/m2 unknown
03:14 46.4 °F 33.8 °F 29.9 in ENE 4.3 mph 6.8 mph 60% 0 in 0.00 W/m2 unknown
03:19 46.4 °F 33.8 °F 29.9 in NE 4.3 mph 6.2 mph 60% 0 in 0.00 W/m2 unknown
03:24 46.4 °F 33.8 °F 29.9 in NE 3.7 mph 5 mph 60% 0 in 0.00 W/m2 unknown
03:29 46.4 °F 33.8 °F 29.9 in NE 5 mph 6.2 mph 60% 0 in 0.00 W/m2 unknown
03:34 46.4 °F 33.8 °F 29.9 in NE 5 mph 6.8 mph 60% 0 in 0.00 W/m2 unknown
03:39 46.4 °F 33.8 °F 29.9 in NE 5 mph 6.8 mph 60% 0 in 0.00 W/m2 unknown
03:44 46.4 °F 33.8 °F 29.9 in NE 5 mph 6.2 mph 60% 0 in 0.00 W/m2 unknown
03:49 46.4 °F 33.8 °F 29.9 in NE 5 mph 6.8 mph 60% 0 in 0.00 W/m2 unknown
03:54 46.4 °F 33.8 °F 29.9 in NE 5 mph 6.8 mph 60% 0 in 0.00 W/m2 unknown
03:59 46.4 °F 33.8 °F 29.9 in NE 5 mph 6.8 mph 60% 0 in 0.00 W/m2 unknown
04:04 46.4 °F 33.8 °F 29.9 in NE 5 mph 6.8 mph 60% 0 in 0.00 W/m2 unknown
04:09 46.4 °F 33.8 °F 29.9 in NE 5 mph 6.8 mph 60% 0 in 0.00 W/m2 unknown
04:14 46.4 °F 32 °F 29.9 in NE 5 mph 6.8 mph 60% 0 in 0.00 W/m2 unknown
04:19 46.4 °F 32 °F 29.9 in NE 5 mph 6.8 mph 59% 0 in 0.00 W/m2 unknown
04:24 46.4 °F 32 °F 29.9 in NE 5 mph 6.8 mph 59% 0 in 0.00 W/m2 unknown
04:29 46.4 °F 32 °F 29.9 in NE 3.7 mph 6.2 mph 60% 0 in 0.00 W/m2 unknown
04:34 44.6 °F 32 °F 29.9 in NE 3.1 mph 5 mph 61% 0 in 0.00 W/m2 unknown
04:39 44.6 °F 32 °F 29.9 in NNE 2.5 mph 3.7 mph 62% 0 in 0.00 W/m2 unknown
04:44 44.6 °F 32 °F 29.9 in NNE 3.1 mph 3.7 mph 62% 0 in 0.00 W/m2 unknown
04:49 44.6 °F 32 °F 29.9 in NE 3.7 mph 5 mph 62% 0 in 0.00 W/m2 unknown
04:54 44.6 °F 32 °F 29.9 in NE 4.3 mph 6.2 mph 62% 0 in 0.00 W/m2 unknown
04:59 44.6 °F 32 °F 29.9 in NE 5 mph 6.2 mph 61% 0 in 0.00 W/m2 unknown
05:04 44.6 °F 32 °F 29.9 in NE 5 mph 6.2 mph 61% 0 in 0.00 W/m2 unknown
05:09 44.6 °F 32 °F 29.9 in NE 5 mph 6.2 mph 61% 0 in 0.00 W/m2 unknown
05:14 44.6 °F 32 °F 29.9 in NNE 4.3 mph 6.2 mph 62% 0 in 0.00 W/m2 unknown
05:19 44.6 °F 32 °F 29.9 in NNE 3.1 mph 5 mph 63% 0 in 0.00 W/m2 unknown
05:24 44.6 °F 33.8 °F 29.9 in NNE 2.5 mph 3.7 mph 64% 0 in 0.00 W/m2 unknown
05:29 44.6 °F 33.8 °F 29.9 in NNE 2.5 mph 3.7 mph 64% 0 in 0.00 W/m2 unknown
05:34 44.6 °F 32 °F 29.9 in NNE 3.1 mph 3.7 mph 64% 0 in 0.00 W/m2 unknown
05:39 44.6 °F 32 °F 29.9 in NNE 2.5 mph 3.7 mph 64% 0 in 0.00 W/m2 unknown
05:44 44.6 °F 32 °F 29.9 in NNE 1.2 mph 3.1 mph 64% 0 in 0.00 W/m2 unknown
05:49 44.6 °F 33.8 °F 29.9 in North 2.5 mph 3.7 mph 65% 0 in 0.00 W/m2 unknown
05:54 42.8 °F 33.8 °F 29.9 in North 2.5 mph 3.7 mph 66% 0 in 0.00 W/m2 unknown
05:59 44.6 °F 33.8 °F 29.9 in North 2.5 mph 3.7 mph 68% 0 in 0.00 W/m2 unknown
06:04 44.6 °F 35.6 °F 29.9 in North 3.7 mph 3.7 mph 71% 0 in 0.00 W/m2 unknown
06:09 44.6 °F 33.8 °F 29.9 in NNE 3.1 mph 4.3 mph 70% 0 in 0.00 W/m2 unknown
06:14 44.6 °F 32 °F 29.9 in North 3.1 mph 5 mph 64% 0 in 0.00 W/m2 unknown
06:19 44.6 °F 32 °F 29.9 in NNE 3.1 mph 3.7 mph 64% 0 in 0.00 W/m2 unknown
06:24 44.6 °F 32 °F 29.9 in NNE 3.1 mph 3.7 mph 64% 0 in 0.00 W/m2 unknown
06:29 44.6 °F 32 °F 29.9 in NNE 3.1 mph 3.7 mph 64% 0 in 0.00 W/m2 unknown
06:34 44.6 °F 32 °F 29.9 in NNE 3.1 mph 4.3 mph 65% 0 in 5.00 W/m2 unknown
06:39 44.6 °F 32 °F 29.9 in NNE 1.9 mph 5 mph 65% 0 in 7.00 W/m2 unknown
06:44 44.6 °F 32 °F 29.9 in NNE 1.9 mph 3.7 mph 64% 0 in 11.00 W/m2 unknown
06:49 44.6 °F 32 °F 29.9 in NNE 1.9 mph 3.7 mph 64% 0 in 14.00 W/m2 unknown
06:54 44.6 °F 33.8 °F 29.9 in NNE 1.9 mph 3.7 mph 65% 0 in 16.00 W/m2 unknown
06:59 44.6 °F 33.8 °F 29.9 in NNE 1.2 mph 3.1 mph 66% 0 in 16.00 W/m2 unknown
07:04 42.8 °F 33.8 °F 29.9 in NNE 1.2 mph 2.5 mph 68% 0 in 18.00 W/m2 unknown
07:09 42.8 °F 33.8 °F 29.9 in NNE 1.2 mph 2.5 mph 69% 0 in 18.00 W/m2 unknown
07:14 42.8 °F 33.8 °F 29.9 in NNE 0.6 mph 1.9 mph 69% 0 in 19.00 W/m2 unknown
07:19 42.8 °F 33.8 °F 29.9 in NNE 1.2 mph 2.5 mph 69% 0 in 21.00 W/m2 unknown
07:24 42.8 °F 33.8 °F 29.9 in NW 1.9 mph 3.1 mph 71% 0 in 23.00 W/m2 unknown
07:29 42.8 °F 33.8 °F 29.9 in SW 2.5 mph 3.7 mph 71% 0 in 26.00 W/m2 unknown
07:34 42.8 °F 33.8 °F 29.9 in SW 3.1 mph 3.7 mph 71% 0 in 30.00 W/m2 unknown
07:39 41 °F 32 °F 29.9 in WSW 2.5 mph 3.7 mph 70% 0 in 33.00 W/m2 unknown
07:44 41 °F 32 °F 29.9 in WSW 3.1 mph 3.7 mph 71% 0 in 54.00 W/m2 unknown
07:49 41 °F 32 °F 29.9 in SW 3.1 mph 3.7 mph 71% 0 in 104.00 W/m2 unknown
07:54 42.8 °F 33.8 °F 29.9 in SW 1.9 mph 3.7 mph 71% 0 in 104.00 W/m2 unknown
07:59 42.8 °F 33.8 °F 29.9 in SW 1.9 mph 3.1 mph 71% 0 in 62.00 W/m2 unknown
08:04 42.8 °F 33.8 °F 29.9 in SW 1.2 mph 2.5 mph 71% 0 in 93.00 W/m2 unknown
08:09 42.8 °F 33.8 °F 29.9 in SW 1.2 mph 2.5 mph 70% 0 in 81.00 W/m2 unknown
08:14 42.8 °F 33.8 °F 29.9 in SW 1.2 mph 2.5 mph 72% 0 in 51.00 W/m2 unknown
08:19 42.8 °F 33.8 °F 29.9 in SW 2.5 mph 3.7 mph 72% 0 in 62.00 W/m2 unknown
08:24 42.8 °F 33.8 °F 29.9 in WSW 3.1 mph 3.7 mph 72% 0 in 77.00 W/m2 unknown
08:29 42.8 °F 35.6 °F 29.9 in WSW 3.7 mph 3.7 mph 73% 0 in 88.00 W/m2 unknown
08:34 42.8 °F 35.6 °F 29.9 in WSW 3.1 mph 3.7 mph 73% 0 in 114.00 W/m2 unknown
08:39 42.8 °F 35.6 °F 29.9 in WSW 3.1 mph 3.7 mph 74% 0 in 69.00 W/m2 unknown
08:44 42.8 °F 35.6 °F 29.9 in WSW 3.1 mph 3.7 mph 74% 0 in 160.00 W/m2 unknown
08:49 42.8 °F 35.6 °F 29.9 in WSW 3.7 mph 3.7 mph 75% 0 in 179.00 W/m2 unknown
08:54 42.8 °F 35.6 °F 29.9 in WSW 3.7 mph 5 mph 75% 0 in 225.00 W/m2 unknown
08:59 44.6 °F 37.4 °F 29.9 in West 2.5 mph 5 mph 76% 0 in 237.00 W/m2 unknown
09:04 44.6 °F 37.4 °F 29.9 in WSW 3.1 mph 3.7 mph 76% 0 in 385.00 W/m2 unknown
09:09 46.4 °F 39.2 °F 29.9 in West 3.1 mph 3.7 mph 76% 0 in 413.00 W/m2 unknown
09:14 48.2 °F 39.2 °F 29.9 in West 3.1 mph 3.7 mph 75% 0 in 431.00 W/m2 unknown
09:19 50 °F 39.2 °F 29.9 in West 2.5 mph 3.7 mph 72% 0 in 450.00 W/m2 unknown
09:24 50 °F 39.2 °F 29.9 in WSW 1.9 mph 3.7 mph 67% 0 in 436.00 W/m2 unknown
09:29 50 °F 39.2 °F 29.9 in WSW 1.9 mph 3.1 mph 64% 0 in 410.00 W/m2 unknown
09:34 51.8 °F 39.2 °F 29.9 in WSW 1.2 mph 2.5 mph 64% 0 in 404.00 W/m2 unknown
09:39 51.8 °F 39.2 °F 29.9 in NW 1.9 mph 3.7 mph 62% 0 in 406.00 W/m2 unknown
09:44 53.6 °F 39.2 °F 29.9 in NE 1.9 mph 3.7 mph 62% 0 in 443.00 W/m2 unknown
09:49 53.6 °F 37.4 °F 29.9 in NE 1.9 mph 3.7 mph 55% 0 in 443.00 W/m2 unknown
09:54 53.6 °F 37.4 °F 29.9 in NNW 1.9 mph 3.7 mph 55% 0 in 443.00 W/m2 unknown
09:59 55.4 °F 39.2 °F 29.9 in NE 2.5 mph 3.7 mph 54% 0 in 563.00 W/m2 unknown
10:04 55.4 °F 39.2 °F 29.9 in East 3.1 mph 5 mph 53% 0 in 598.00 W/m2 unknown
10:09 55.4 °F 37.4 °F 29.9 in East 5 mph 8.1 mph 49% 0 in 610.00 W/m2 unknown
10:14 55.4 °F 37.4 °F 29.9 in East 3.1 mph 8.1 mph 51% 0 in 332.00 W/m2 unknown
10:19 55.4 °F 37.4 °F 29.9 in ESE 4.3 mph 5 mph 51% 0 in 359.00 W/m2 unknown
10:24 55.4 °F 37.4 °F 29.9 in East 5.6 mph 6.8 mph 49% 0 in 411.00 W/m2 unknown
10:29 55.4 °F 37.4 °F 29.9 in ENE 5 mph 6.8 mph 51% 0 in 411.00 W/m2 unknown
10:34 55.4 °F 37.4 °F 29.9 in NE 5.6 mph 6.8 mph 50% 0 in 448.00 W/m2 unknown
10:39 57.2 °F 37.4 °F 29.9 in ENE 5 mph 6.8 mph 50% 0 in 663.00 W/m2 unknown
10:44 57.2 °F 37.4 °F 29.9 in East 5 mph 8.1 mph 49% 0 in 649.00 W/m2 unknown
10:49 57.2 °F 39.2 °F 29.9 in East 5.6 mph 8.1 mph 50% 0 in 671.00 W/m2 unknown
10:54 59 °F 41 °F 29.9 in NNE 5 mph 8.1 mph 54% 0 in 680.00 W/m2 unknown
10:59 59 °F 37.4 °F 29.9 in East 3.7 mph 6.8 mph 47% 0 in 682.00 W/m2 unknown
11:04 57.2 °F 39.2 °F 29.9 in ESE 5 mph 6.8 mph 51% 0 in 694.00 W/m2 unknown
11:09 57.2 °F 37.4 °F 29.9 in East 5 mph 8.1 mph 47% 0 in 696.00 W/m2 unknown
11:14 59 °F 41 °F 29.9 in NNE 5.6 mph 8.1 mph 51% 0 in 707.00 W/m2 unknown
11:19 60.8 °F 41 °F 29.9 in NNE 5 mph 6.8 mph 51% 0 in 707.00 W/m2 unknown
11:24 60.8 °F 39.2 °F 29.9 in NNE 4.3 mph 6.2 mph 48% 0 in 343.00 W/m2 unknown
11:29 60.8 °F 41 °F 29.9 in North 3.1 mph 6.2 mph 49% 0 in 508.00 W/m2 unknown
11:34 60.8 °F 41 °F 29.9 in NE 4.3 mph 6.8 mph 47% 0 in 731.00 W/m2 unknown
11:39 60.8 °F 39.2 °F 29.9 in NNW 3.1 mph 6.8 mph 46% 0 in 740.00 W/m2 unknown
11:44 60.8 °F 39.2 °F 29.8 in ENE 4.3 mph 6.8 mph 46% 0 in 745.00 W/m2 unknown
11:49 60.8 °F 39.2 °F 29.8 in NNE 4.3 mph 6.8 mph 46% 0 in 756.00 W/m2 unknown
11:54 62.6 °F 42.8 °F 29.8 in NE 3.7 mph 6.8 mph 50% 0 in 763.00 W/m2 unknown
11:59 62.6 °F 39.2 °F 29.8 in ESE 3.1 mph 5 mph 43% 0 in 768.00 W/m2 unknown
12:04 60.8 °F 37.4 °F 29.8 in South 2.5 mph 5 mph 44% 0 in 773.00 W/m2 unknown
12:09 60.8 °F 41 °F 29.8 in WNW 1.9 mph 3.7 mph 48% 0 in 780.00 W/m2 unknown
12:14 60.8 °F 41 °F 29.8 in South 5.6 mph 8.1 mph 49% 0 in 784.00 W/m2 unknown
12:19 60.8 °F 39.2 °F 29.8 in ESE 5.6 mph 8.1 mph 44% 0 in 786.00 W/m2 unknown
12:24 62.6 °F 41 °F 29.8 in East 3.7 mph 6.2 mph 46% 0 in 793.00 W/m2 unknown
12:29 62.6 °F 42.8 °F 29.8 in NE 3.7 mph 6.2 mph 48% 0 in 796.00 W/m2 unknown
12:34 64.4 °F 42.8 °F 29.8 in North 5 mph 6.8 mph 48% 0 in 798.00 W/m2 unknown
12:39 64.4 °F 41 °F 29.8 in NNE 3.7 mph 6.8 mph 42% 0 in 803.00 W/m2 unknown
12:44 64.4 °F 39.2 °F 29.8 in NNE 3.1 mph 5 mph 43% 0 in 807.00 W/m2 unknown
12:49 64.4 °F 41 °F 29.8 in North 1.9 mph 3.7 mph 44% 0 in 807.00 W/m2 unknown
12:54 64.4 °F 41 °F 29.8 in NNE 5.6 mph 8.1 mph 44% 0 in 814.00 W/m2 unknown
12:59 62.6 °F 39.2 °F 29.8 in SE 6.2 mph 9.3 mph 43% 0 in 812.00 W/m2 unknown
13:04 64.4 °F 41 °F 29.8 in ENE 5 mph 8.7 mph 45% 0 in 817.00 W/m2 unknown
13:09 64.4 °F 42.8 °F 29.8 in East 5.6 mph 8.7 mph 46% 0 in 821.00 W/m2 unknown
13:14 64.4 °F 41 °F 29.8 in East 6.2 mph 9.3 mph 42% 0 in 821.00 W/m2 unknown
13:19 64.4 °F 41 °F 29.8 in NE 5 mph 8.7 mph 42% 0 in 821.00 W/m2 unknown
13:24 64.4 °F 41 °F 29.8 in NE 4.3 mph 6.8 mph 43% 0 in 823.00 W/m2 unknown
13:29 66.2 °F 41 °F 29.8 in ENE 5.6 mph 8.1 mph 43% 0 in 823.00 W/m2 unknown
13:34 66.2 °F 41 °F 29.8 in ENE 4.3 mph 8.1 mph 41% 0 in 823.00 W/m2 unknown
13:39 64.4 °F 41 °F 29.8 in ESE 5 mph 6.8 mph 41% 0 in 824.00 W/m2 unknown
13:44 64.4 °F 41 °F 29.8 in NNE 3.7 mph 6.8 mph 42% 0 in 821.00 W/m2 unknown
13:49 66.2 °F 39.2 °F 29.8 in WNW 3.7 mph 6.2 mph 39% 0 in 819.00 W/m2 unknown
13:54 66.2 °F 41 °F 29.8 in NNW 5 mph 8.1 mph 39% 0 in 817.00 W/m2 unknown
13:59 66.2 °F 41 °F 29.8 in NNW 5.6 mph 8.1 mph 39% 0 in 816.00 W/m2 unknown
14:04 66.2 °F 39.2 °F 29.8 in NNW 5 mph 6.8 mph 38% 0 in 809.00 W/m2 unknown
14:09 66.2 °F 37.4 °F 29.8 in West 3.1 mph 6.2 mph 37% 0 in 807.00 W/m2 unknown
14:14 66.2 °F 37.4 °F 29.8 in West 8.1 mph 10.6 mph 37% 0 in 800.00 W/m2 unknown
14:19 66.2 °F 39.2 °F 29.8 in WNW 8.1 mph 9.9 mph 37% 0 in 798.00 W/m2 unknown
14:24 66.2 °F 39.2 °F 29.8 in WSW 5 mph 8.7 mph 37% 0 in 795.00 W/m2 unknown
14:28 66.2 °F 39.2 °F 29.8 in WSW 5 mph 8.1 mph 37% 0 in 789.00 W/m2 unknown
14:34 66.2 °F 39.2 °F 29.8 in SW 5 mph 6.2 mph 38% 0 in 784.00 W/m2 unknown
14:39 66.2 °F 39.2 °F 29.8 in SSW 3.7 mph 6.2 mph 37% 0 in 779.00 W/m2 unknown
14:42 66.2 °F 39.2 °F 29.8 in ENE 1.2 mph 2.5 mph 37% 0 in 775.00 W/m2 unknown
14:49 66.2 °F 41 °F 29.8 in South 3.1 mph 4.3 mph 39% 0 in 770.00 W/m2 unknown
14:53 68 °F 41 °F 29.8 in WSW 3.7 mph 5 mph 39% 0 in 763.00 W/m2 unknown
14:59 68 °F 42.8 °F 29.8 in West 3.7 mph 6.8 mph 41% 0 in 754.00 W/m2 unknown
15:02 68 °F 42.8 °F 29.8 in WSW 4.3 mph 6.8 mph 41% 0 in 747.00 W/m2 unknown
15:09 68 °F 41 °F 29.8 in West 5 mph 8.1 mph 37% 0 in 735.00 W/m2 unknown
15:14 68 °F 39.2 °F 29.8 in NNW 5 mph 8.1 mph 36% 0 in 729.00 W/m2 unknown
15:19 68 °F 39.2 °F 29.8 in SSW 3.1 mph 3.7 mph 37% 0 in 719.00 W/m2 unknown
15:24 68 °F 39.2 °F 29.8 in SSW 4.3 mph 6.8 mph 37% 0 in 721.00 W/m2 unknown
15:29 68 °F 41 °F 29.8 in South 3.7 mph 6.8 mph 39% 0 in 703.00 W/m2 unknown
15:34 68 °F 41 °F 29.8 in SSW 5 mph 6.8 mph 39% 0 in 705.00 W/m2 unknown
15:37 68 °F 41 °F 29.8 in WSW 6.2 mph 6.8 mph 38% 0 in 689.00 W/m2 unknown
15:44 68 °F 41 °F 29.8 in West 2.5 mph 3.7 mph 37% 0 in 687.00 W/m2 unknown
15:49 68 °F 39.2 °F 29.8 in SW 4.3 mph 6.8 mph 37% 0 in 666.00 W/m2 unknown
15:54 68 °F 41 °F 29.7 in SSE 3.7 mph 5.6 mph 38% 0 in 643.00 W/m2 unknown
15:59 68 °F 41 °F 29.7 in ESE 4.3 mph 6.2 mph 38% 0 in 643.00 W/m2 unknown
16:04 68 °F 42.8 °F 29.7 in East 1.9 mph 4.3 mph 39% 0 in 617.00 W/m2 unknown
16:09 68 °F 42.8 °F 29.7 in SSE 2.5 mph 4.3 mph 39% 0 in 613.00 W/m2 unknown
16:14 68 °F 41 °F 29.7 in East 3.7 mph 5.6 mph 37% 0 in 617.00 W/m2 unknown
16:16 68 °F 41 °F 29.7 in ESE 2.5 mph 3.7 mph 39% 0 in 570.00 W/m2 unknown
16:24 68 °F 42.8 °F 29.7 in SSW 4.3 mph 5.6 mph 40% 0 in 580.00 W/m2 unknown
16:29 68 °F 41 °F 29.7 in South 3.7 mph 6.2 mph 38% 0 in 571.00 W/m2 unknown
16:34 68 °F 42.8 °F 29.7 in South 5 mph 8.1 mph 39% 0 in 570.00 W/m2 unknown
16:39 68 °F 41 °F 29.7 in SSE 4.3 mph 6.8 mph 37% 0 in 543.00 W/m2 unknown
16:44 68 °F 41 °F 29.7 in SSE 3.7 mph 5.6 mph 37% 0 in 508.00 W/m2 unknown
16:49 68 °F 41 °F 29.7 in East 3.1 mph 6.2 mph 38% 0 in 487.00 W/m2 unknown
16:53 68 °F 41 °F 29.7 in South 3.1 mph 3.7 mph 37% 0 in 485.00 W/m2 unknown
16:59 68 °F 42.8 °F 29.7 in SSW 3.7 mph 6.2 mph 39% 0 in 504.00 W/m2 unknown
17:04 68 °F 41 °F 29.7 in SE 3.7 mph 6.2 mph 37% 0 in 496.00 W/m2 unknown
17:09 68 °F 41 °F 29.7 in SE 2.5 mph 3.7 mph 38% 0 in 469.00 W/m2 unknown
17:19 68 °F 42.8 °F 29.7 in SE 3.1 mph 3.7 mph 41% 0 in 441.00 W/m2 unknown
17:24 68 °F 42.8 °F 29.7 in East 3.1 mph 3.7 mph 39% 0 in 417.00 W/m2 unknown
17:29 68 °F 41 °F 29.7 in NNE 3.1 mph 3.7 mph 38% 0 in 353.00 W/m2 unknown
17:34 68 °F 42.8 °F 29.7 in NE 1.9 mph 3.1 mph 39% 0 in 352.00 W/m2 unknown
17:39 68 °F 42.8 °F 29.7 in South 1.9 mph 3.7 mph 39% 0 in 385.00 W/m2 unknown
17:44 68 °F 42.8 °F 29.7 in ESE 3.7 mph 6.2 mph 39% 0 in 390.00 W/m2 unknown
17:49 68 °F 42.8 °F 29.7 in East 5 mph 8.1 mph 39% 0 in 373.00 W/m2 unknown
17:54 68 °F 42.8 °F 29.7 in East 5 mph 8.1 mph 39% 0 in 134.00 W/m2 unknown
17:59 68 °F 42.8 °F 29.7 in East 5.6 mph 6.8 mph 40% 0 in 330.00 W/m2 unknown
18:04 68 °F 42.8 °F 29.7 in ESE 6.2 mph 6.8 mph 40% 0 in 330.00 W/m2 unknown
18:09 68 °F 42.8 °F 29.7 in SE 5 mph 6.8 mph 41% 0 in 315.00 W/m2 unknown
18:14 68 °F 42.8 °F 29.7 in SSE 3.7 mph 6.8 mph 39% 0 in 322.00 W/m2 unknown
18:19 68 °F 42.8 °F 29.7 in ESE 5.6 mph 8.1 mph 39% 0 in 301.00 W/m2 unknown
18:24 68 °F 42.8 °F 29.7 in ESE 5.6 mph 8.1 mph 41% 0 in 276.00 W/m2 unknown
18:29 68 °F 42.8 °F 29.7 in ESE 9.9 mph 11.8 mph 40% 0 in 262.00 W/m2 unknown
18:34 68 °F 42.8 °F 29.7 in ESE 7.5 mph 11.8 mph 41% 0 in 253.00 W/m2 unknown
18:39 66.2 °F 42.8 °F 29.7 in ESE 6.8 mph 11.8 mph 41% 0 in 232.00 W/m2 unknown
18:44 66.2 °F 42.8 °F 29.7 in East 7.5 mph 9.3 mph 41% 0 in 179.00 W/m2 unknown
18:49 66.2 °F 42.8 °F 29.7 in East 6.8 mph 9.3 mph 42% 0 in 132.00 W/m2 unknown
18:54 66.2 °F 42.8 °F 29.7 in East 6.2 mph 8.7 mph 43% 0 in 93.00 W/m2 unknown
18:59 66.2 °F 42.8 °F 29.7 in ESE 5.6 mph 6.8 mph 43% 0 in 72.00 W/m2 unknown
19:04 66.2 °F 42.8 °F 29.7 in ESE 3.7 mph 6.8 mph 44% 0 in 65.00 W/m2 unknown
19:09 66.2 °F 42.8 °F 29.7 in ESE 3.7 mph 6.2 mph 44% 0 in 56.00 W/m2 unknown
19:14 64.4 °F 42.8 °F 29.7 in ESE 3.7 mph 5 mph 45% 0 in 56.00 W/m2 unknown
19:19 64.4 °F 42.8 °F 29.7 in ESE 3.7 mph 5 mph 45% 0 in 49.00 W/m2 unknown
19:24 64.4 °F 42.8 °F 29.7 in East 3.1 mph 5 mph 47% 0 in 44.00 W/m2 unknown
19:29 64.4 °F 42.8 °F 29.7 in East 3.7 mph 5 mph 47% 0 in 37.00 W/m2 unknown
19:34 64.4 °F 44.6 °F 29.7 in East 2.5 mph 5 mph 49% 0 in 35.00 W/m2 unknown
19:39 62.6 °F 44.6 °F 29.7 in East 3.7 mph 5 mph 49% 0 in 32.00 W/m2 unknown
19:44 62.6 °F 44.6 °F 29.7 in East 3.1 mph 5 mph 50% 0 in 25.00 W/m2 unknown
19:49 62.6 °F 44.6 °F 29.7 in East 3.7 mph 6.2 mph 51% 0 in 18.00 W/m2 unknown
19:54 62.6 °F 42.8 °F 29.7 in East 3.7 mph 6.2 mph 50% 0 in 11.00 W/m2 unknown
19:59 62.6 °F 44.6 °F 29.7 in East 3.7 mph 6.2 mph 52% 0 in 7.00 W/m2 unknown
20:04 62.6 °F 44.6 °F 29.7 in ESE 3.7 mph 5 mph 52% 0 in 5.00 W/m2 unknown
20:09 60.8 °F 44.6 °F 29.7 in ESE 3.7 mph 6.2 mph 52% 0 in 0.00 W/m2 unknown
20:14 60.8 °F 42.8 °F 29.7 in ESE 4.3 mph 6.2 mph 52% 0 in 0.00 W/m2 unknown
20:19 60.8 °F 44.6 °F 29.7 in East 3.7 mph 6.2 mph 53% 0 in 0.00 W/m2 unknown
20:24 60.8 °F 44.6 °F 29.7 in East 3.1 mph 5 mph 53% 0 in 0.00 W/m2 unknown
20:29 60.8 °F 44.6 °F 29.7 in East 2.5 mph 5 mph 54% 0 in 0.00 W/m2 unknown
20:34 60.8 °F 44.6 °F 29.7 in ESE 3.7 mph 5 mph 54% 0 in 0.00 W/m2 unknown
20:39 60.8 °F 44.6 °F 29.8 in East 12.4 mph 16.2 mph 56% 0 in 0.00 W/m2 unknown
20:44 60.8 °F 46.4 °F 29.8 in East 13 mph 18.6 mph 59% 0 in 0.00 W/m2 unknown
20:49 59 °F 46.4 °F 29.8 in East 13.7 mph 18.6 mph 61% 0 in 0.00 W/m2 unknown
20:54 59 °F 46.4 °F 29.8 in East 13 mph 18 mph 61% 0 in 0.00 W/m2 unknown
20:59 59 °F 46.4 °F 29.8 in East 11.2 mph 16.8 mph 62% 0 in 0.00 W/m2 unknown
21:04 59 °F 46.4 °F 29.8 in East 10.6 mph 13.7 mph 62% 0 in 0.00 W/m2 unknown
21:09 59 °F 44.6 °F 29.8 in East 11.8 mph 19.9 mph 62% 0 in 0.00 W/m2 unknown
21:14 57.2 °F 44.6 °F 29.8 in East 11.8 mph 19.9 mph 62% 0 in 0.00 W/m2 unknown
21:19 57.2 °F 44.6 °F 29.8 in East 9.3 mph 19.9 mph 62% 0 in 0.00 W/m2 unknown
21:24 57.2 °F 44.6 °F 29.8 in East 9.3 mph 14.9 mph 62% 0 in 0.00 W/m2 unknown
21:29 57.2 °F 44.6 °F 29.8 in East 11.8 mph 19.9 mph 63% 0 in 0.00 W/m2 unknown
21:34 57.2 °F 44.6 °F 29.8 in East 14.3 mph 19.9 mph 64% 0 in 0.00 W/m2 unknown
21:39 57.2 °F 44.6 °F 29.8 in East 12.4 mph 19.9 mph 64% 0 in 0.00 W/m2 unknown
21:44 57.2 °F 44.6 °F 29.8 in East 9.3 mph 16.2 mph 65% 0 in 0.00 W/m2 unknown
21:49 57.2 °F 44.6 °F 29.8 in East 11.2 mph 16.2 mph 66% 0 in 0.00 W/m2 unknown
21:54 57.2 °F 44.6 °F 29.8 in East 9.9 mph 16.2 mph 66% 0 in 0.00 W/m2 unknown
21:59 57.2 °F 44.6 °F 29.8 in East 8.7 mph 14.3 mph 66% 0 in 0.00 W/m2 unknown
22:04 55.4 °F 44.6 °F 29.8 in East 11.8 mph 14.3 mph 66% 0 in 0.00 W/m2 unknown
22:09 55.4 °F 44.6 °F 29.8 in East 10.6 mph 14.9 mph 66% 0 in 0.00 W/m2 unknown
22:14 55.4 °F 44.6 °F 29.8 in East 11.8 mph 14.9 mph 66% 0 in 0.00 W/m2 unknown
22:19 55.4 °F 44.6 °F 29.8 in East 11.8 mph 16.2 mph 66% 0 in 0.00 W/m2 unknown
22:24 55.4 °F 44.6 °F 29.8 in East 8.7 mph 16.2 mph 66% 0 in 0.00 W/m2 unknown
22:29 55.4 °F 44.6 °F 29.8 in East 10.6 mph 14.9 mph 66% 0 in 0.00 W/m2 unknown
22:34 55.4 °F 44.6 °F 29.8 in East 8.7 mph 14.9 mph 67% 0 in 0.00 W/m2 unknown
22:39 55.4 °F 44.6 °F 29.8 in East 8.7 mph 11.8 mph 67% 0 in 0.00 W/m2 unknown
22:44 55.4 °F 44.6 °F 29.8 in East 8.1 mph 11.8 mph 68% 0 in 0.00 W/m2 unknown
22:49 53.6 °F 44.6 °F 29.8 in East 8.7 mph 12.4 mph 69% 0 in 0.00 W/m2 unknown
22:54 53.6 °F 44.6 °F 29.8 in East 9.3 mph 14.3 mph 70% 0 in 0.00 W/m2 unknown
22:59 53.6 °F 44.6 °F 29.8 in East 9.3 mph 14.3 mph 70% 0 in 0.00 W/m2 unknown
23:04 53.6 °F 44.6 °F 29.8 in East 8.1 mph 13 mph 70% 0 in 0.00 W/m2 unknown
23:09 53.6 °F 44.6 °F 29.8 in East 9.3 mph 11.8 mph 70% 0 in 0.00 W/m2 unknown
23:14 53.6 °F 44.6 °F 29.8 in East 8.7 mph 13 mph 70% 0 in 0.00 W/m2 unknown
23:19 53.6 °F 44.6 °F 29.8 in East 6.8 mph 13 mph 70% 0 in 0.00 W/m2 unknown
23:24 53.6 °F 44.6 °F 29.8 in East 7.5 mph 10.6 mph 72% 0 in 0.00 W/m2 unknown
23:29 53.6 °F 42.8 °F 29.8 in East 8.1 mph 10.6 mph 70% 0 in 0.00 W/m2 unknown
23:34 53.6 °F 42.8 °F 29.8 in East 8.1 mph 13 mph 70% 0 in 0.00 W/m2 unknown
23:39 53.6 °F 44.6 °F 29.8 in ENE 7.5 mph 13 mph 71% 0 in 0.00 W/m2 unknown
23:44 53.6 °F 44.6 °F 29.8 in East 7.5 mph 13 mph 71% 0 in 0.00 W/m2 unknown
23:49 51.8 °F 42.8 °F 29.8 in East 9.9 mph 14.3 mph 71% 0 in 0.00 W/m2 unknown
23:59 51.8 °F 44.6 °F 29.8 in East 9.9 mph 13 mph 72% 0 in 0.00 W/m2 unknown
Stazione Meteorologica MeteoMincio Rivalta s/M (MN)
Con i complimenti di Weather Underground - 4 mb



METEO PILLOLE
Lo strato di neve al suolo più spesso
Tamarack, California
11,455 metri nel marzo 1911.
Share

Non seguire questo link o sarai bannato dal sito!